GW6562 Weather Reports


time (UTC)temp
F
wind
direction
speed
knots
gust
knots
rain 1hr
in
rain 24hr
in
rain mn
in
humidity
%
barometer
mb
20260506010959 43 294 1.7 3.5 0.00 0.00 0.00 83 1013.0
20260506010500 43 294 2.6 3.5 0.00 0.00 0.00 83 1013.1
20260506005958 43 300 2.6 3.5 0.00 0.00 0.00 83 1013.2
20260506005459 44 299 1.7 3.5 0.00 0.00 0.00 83 1013.2
20260506004958 44 317 1.7 2.6 0.00 0.00 0.00 83 1013.2
20260506004458 44 333 1.7 2.6 0.00 0.00 0.00 83 1013.2
20260506003958 44 355 0.0 1.7 0.00 0.00 0.00 83 1013.3
20260506003459 44 344 0.0 4.3 0.00 0.00 0.00 83 1013.2
20260506002959 44 355 3.5 4.3 0.00 0.00 0.00 83 1013.2
20260506002458 44 327 3.5 3.5 0.00 0.00 0.00 83 1013.3
20260506001959 44 347 1.7 4.3 0.00 0.00 0.00 83 1013.3
20260506001458 44 320 1.7 4.3 0.00 0.00 0.00 83 1013.3
20260506001000 44 321 2.6 4.3 0.00 0.00 0.00 83 1013.2
20260506000459 44 338 1.7 4.3 0.00 0.00 0.00 83 1013.3
20260506000000 44 325 2.6 4.3 0.00 0.00 0.00 82 1013.4
20260505235459 44 338 2.6 3.5 0.00 0.00 0.00 83 1013.3
20260505234959 44 348 0.9 4.3 0.00 0.00 0.00 83 1013.3
20260505234458 44 338 1.7 4.3 0.00 0.00 0.00 82 1013.4
20260505234000 44 313 1.7 5.2 0.00 0.00 0.00 82 1013.4
20260505232459 44 337 3.5 7.0 0.00 0.00 0.00 82 1013.3
20260505231959 44 337 2.6 5.2 0.00 0.00 0.00 81 1013.4
20260505231500 44 308 2.6 5.2 0.00 0.00 0.00 81 1013.5
20260505230959 44 310 4.3 4.3 0.00 0.00 0.00 81 1013.5
20260505230459 45 343 1.7 4.3 0.00 0.00 0.00 81 1013.6
20260505230002 45 320 1.7 4.3 0.00 0.00 0.00 81 1013.6
20260505224959 45 333 1.7 4.3 0.00 0.00 0.00 81 1013.5
20260505224459 45 348 1.7 5.2 0.00 0.00 0.00 81 1013.6
20260505224000 45 15 4.3 6.1 0.00 0.00 0.00 81 1013.6
20260505223458 45 338 2.6 5.2 0.00 0.00 0.00 81 1013.6
20260505222958 45 355 2.6 7.0 0.00 0.00 0.00 81 1013.5
20260505222459 46 355 4.3 7.0 0.00 0.00 0.00 80 1013.6
20260505221959 46 355 2.6 7.0 0.00 0.00 0.00 80 1013.7
20260505221458 46 345 2.6 7.0 0.00 0.00 0.00 80 1013.6
20260505214959 47 341 7.0 11.3 0.00 0.00 0.00 80 1013.6
20260505214500 47 360 7.8 10.4 0.00 0.00 0.00 80 1013.6
20260505213959 47 349 7.0 10.4 0.00 0.00 0.00 81 1013.6
20260505213001 47 348 4.3 9.6 0.00 0.00 0.00 80 1013.7
20260505212459 47 9 6.1 8.7 0.00 0.00 0.00 80 1013.7
20260505211959 48 5 4.3 11.3 0.00 0.00 0.00 80 1013.6
20260505211459 48 346 7.0 11.3 0.00 0.00 0.00 80 1013.6
20260505210959 48 340 8.7 11.3 0.00 0.00 0.00 80 1013.6
20260505210500 48 345 7.0 11.3 0.00 0.00 0.00 80 1013.6
20260505205958 48 345 3.5 10.4 0.00 0.00 0.00 79 1013.6
20260505205500 48 355 3.5 10.4 0.00 0.00 0.00 79 1013.5
20260505205001 48 351 7.0 10.4 0.00 0.00 0.00 79 1013.5
20260505204458 48 355 5.2 9.6 0.00 0.00 0.00 79 1013.5
20260505202958 49 18 7.8 11.3 0.00 0.00 0.00 78 1013.6
20260505202500 49 327 7.0 11.3 0.00 0.00 0.00 78 1013.6
20260505201958 49 345 7.0 11.3 0.00 0.00 0.00 78 1013.6
20260505201458 49 360 7.0 12.2 0.00 0.00 0.00 77 1013.5
20260505201000 49 355 7.0 12.2 0.00 0.00 0.00 77 1013.4
20260505195458 50 9 4.3 12.2 0.00 0.00 0.00 75 1013.4
20260505194458 50 355 7.0 10.4 0.00 0.00 0.00 74 1013.4
20260505193458 50 350 7.0 13.0 0.00 0.00 0.00 74 1013.4
20260505192958 50 5 9.6 13.0 0.00 0.00 0.00 73 1013.4
20260505192458 51 16 7.0 12.2 0.00 0.00 0.00 74 1013.4
20260505191958 51 9 7.0 12.2 0.00 0.00 0.00 74 1013.3
20260505191459 51 351 7.0 13.0 0.00 0.00 0.00 74 1013.3
20260505191000 51 5 12.2 12.2 0.00 0.00 0.00 74 1013.3
20260505185959 52 16 6.1 13.9 0.00 0.00 0.00 74 1013.2
20260505185459 52 22 7.0 13.9 0.00 0.00 0.00 74 1013.2
20260505184958 52 338 9.6 13.0 0.00 0.00 0.00 73 1013.3
20260505184000 52 56 8.7 14.8 0.00 0.00 0.00 72 1013.3
20260505183500 52 24 8.7 14.8 0.00 0.00 0.00 72 1013.3
20260505182959 53 22 7.8 14.8 0.00 0.00 0.00 71 1013.3
20260505182459 53 355 12.2 13.9 0.00 0.00 0.00 72 1013.2
20260505181459 53 45 8.7 14.8 0.00 0.00 0.00 71 1013.2
20260505180958 53 5 9.6 14.8 0.00 0.00 0.00 71 1013.2
20260505180459 54 5 10.4 15.6 0.00 0.00 0.00 72 1013.3
20260505180002 54 15 10.4 15.6 0.00 0.00 0.00 71 1013.2
20260505175459 54 341 9.6 13.0 0.00 0.00 0.00 71 1013.3
20260505174459 54 32 8.7 13.9 0.00 0.00 0.00 70 1013.3
20260505174000 54 355 9.6 13.9 0.00 0.00 0.00 68 1013.3
20260505173000 54 24 11.3 14.8 0.00 0.00 0.00 67 1013.3
20260505172459 54 355 8.7 15.6 0.00 0.00 0.00 67 1013.2
20260505172000 54 5 9.6 15.6 0.00 0.00 0.00 67 1013.3
20260505171459 54 360 9.6 17.4 0.00 0.00 0.00 67 1013.2
20260505170959 55 28 15.6 17.4 0.00 0.00 0.00 66 1013.2
20260505170500 55 16 8.7 17.4 0.00 0.00 0.00 66 1013.2
20260505170000 55 360 9.6 17.4 0.00 0.00 0.00 65 1013.2
20260505165500 55 12 13.9 16.5 0.00 0.00 0.00 67 1013.2
20260505164959 55 11 9.6 13.0 0.00 0.00 0.00 67 1013.2
20260505164501 55 5 10.4 13.0 0.00 0.00 0.00 66 1013.3
20260505164000 55 5 10.4 13.0 0.00 0.00 0.00 66 1013.3
20260505163458 55 28 11.3 13.9 0.00 0.00 0.00 66 1013.3
20260505163000 55 360 7.0 15.6 0.00 0.00 0.00 65 1013.4
20260505162500 55 5 11.3 15.6 0.00 0.00 0.00 64 1013.3
20260505161959 56 22 10.4 13.0 0.00 0.00 0.00 65 1013.4
20260505161459 56 355 7.0 12.2 0.00 0.00 0.00 65 1013.4
20260505160959 56 360 9.6 13.9 0.00 0.00 0.00 67 1013.3
20260505160459 56 5 8.7 13.9 0.00 0.00 0.00 64 1013.3
20260505152500 56 360 8.7 16.5 0.00 0.00 0.00 67 1013.5
20260505152000 56 5 8.7 16.5 0.00 0.00 0.00 66 1013.5
20260505151459 56 39 9.6 13.0 0.00 0.00 0.00 66 1013.3
20260505150958 55 336 12.2 13.9 0.00 0.00 0.00 66 1013.4
20260505150500 56 17 9.6 13.0 0.00 0.00 0.00 68 1013.4
20260505140459 56 30 9.6 15.6 0.00 0.00 0.00 68 1013.4
20260505124958 57 12 8.7 14.8 0.00 0.00 0.00 66 1013.3
20260505124500 57 41 7.8 15.6 0.00 0.00 0.00 65 1013.3
20260505124000 58 355 7.8 15.6 0.00 0.00 0.00 65 1013.2
20260505123500 58 27 9.6 14.8 0.00 0.00 0.00 66 1013.4
20260505122959 57 350 11.3 14.8 0.00 0.00 0.00 65 1013.3
20260505122459 57 44 10.4 13.9 0.00 0.00 0.00 64 1013.4
20260505121959 57 9 8.7 13.0 0.00 0.00 0.00 65 1013.3
20260505121459 57 34 9.6 13.9 0.00 0.00 0.00 65 1013.2
20260505121000 57 355 7.8 11.3 0.00 0.00 0.00 64 1013.2
20260505120003 58 14 7.8 15.6 0.00 0.00 0.00 63 1013.3
20260505115500 58 19 9.6 13.9 0.00 0.38 0.00 63 1013.3
20260505115000 58 12 6.1 13.0 0.00 0.38 0.00 66 1013.2
20260505114001 58 33 9.6 16.5 0.00 0.38 0.00 65 1013.3
20260505113000 57 17 4.3 14.8 0.00 0.38 0.00 66 1013.5
20260505112459 57 39 10.4 14.8 0.00 0.38 0.00 66 1013.5
20260505111959 57 355 9.6 13.0 0.00 0.38 0.00 65 1013.5
20260505111459 57 5 7.8 13.0 0.00 0.38 0.00 65 1013.5
20260505110959 57 340 5.2 13.9 0.00 0.38 0.00 65 1013.5
20260505102000 58 355 7.8 13.9 0.00 0.38 0.00 66 1013.7
20260505101459 58 319 7.8 13.9 0.00 0.38 0.00 67 1013.6
20260505101001 56 24 5.2 12.2 0.00 0.38 0.00 66 1013.7
20260505100458 57 5 9.6 13.0 0.00 0.38 0.00 64 1013.7
20260505100000 58 13 10.4 13.0 0.00 0.38 0.00 65 1013.6
20260505095500 58 37 5.2 10.4 0.00 0.38 0.00 66 1013.6
20260505095000 58 34 5.2 13.0 0.00 0.38 0.00 66 1013.7
20260505093959 57 24 4.3 12.2 0.00 0.38 0.00 66 1013.7
20260505093458 57 16 8.7 12.2 0.00 0.38 0.00 68 1013.8
20260505093000 56 15 4.3 13.0 0.00 0.38 0.00 67 1013.8
20260505092458 56 31 7.8 13.0 0.00 0.38 0.00 67 1013.7
20260505091959 57 32 8.7 13.0 0.00 0.38 0.00 68 1013.7
20260505091500 57 360 7.0 12.2 0.00 0.38 0.00 68 1013.7
20260505090459 57 5 7.8 10.4 0.00 0.38 0.00 69 1013.8
20260505085500 57 5 7.0 11.3 0.00 0.38 0.00 70 1013.9
20260505084955 57 17 10.4 11.3 0.00 0.38 0.00 70 1013.7
20260505084456 56 5 4.3 11.3 0.00 0.38 0.00 69 1013.8
20260505083956 56 10 7.8 11.3 0.00 0.38 0.00 70 1013.8
20260505083455 56 355 9.6 9.6 0.00 0.38 0.00 73 1013.8
20260505082956 56 54 6.1 10.4 0.00 0.38 0.00 74 1013.8
20260505082456 56 37 5.2 11.3 0.00 0.38 0.00 75 1013.9
20260505081956 56 19 8.7 10.4 0.00 0.38 0.00 79 1013.9
20260505081457 55 355 5.2 6.1 0.00 0.38 0.00 80 1013.9
20260505080955 55 34 2.6 6.1 0.00 0.38 0.00 82 1013.9
20260505080456 55 10 3.5 6.1 0.00 0.38 0.00 83 1013.9
20260505075959 54 5 4.3 7.0 0.00 0.38 0.00 85 1013.9
20260505075458 53 9 4.3 7.0 0.00 0.39 0.00 85 1013.8
20260505074958 52 50 1.7 7.0 0.00 0.39 0.00 85 1013.9
20260505074457 52 32 2.6 7.0 0.00 0.39 0.00 85 1014.0
20260505073957 52 18 3.5 8.7 0.00 0.39 0.00 85 1013.9
20260505072458 52 28 7.0 10.4 0.00 0.39 0.00 85 1014.0
20260505071957 52 36 7.8 10.4 0.00 0.39 0.00 85 1014.0
20260505070957 52 5 7.8 10.4 0.00 0.39 0.00 86 1014.0
20260505070458 51 348 4.3 12.2 0.00 0.39 0.00 86 1014.0
20260505065958 51 355 7.0 12.2 0.00 0.39 0.00 86 1013.9
20260505065455 51 19 7.0 9.6 0.00 0.39 0.00 86 1013.9
20260505064956 51 5 5.2 9.6 0.00 0.39 0.00 86 1013.9
20260505064456 51 355 7.8 8.7 0.00 0.39 0.00 86 1013.9
20260505063955 51 5 7.0 8.7 0.00 0.39 0.00 86 1014.0
20260505062956 51 13 7.8 10.4 0.00 0.39 0.00 87 1013.8
20260505062456 51 17 6.1 10.4 0.00 0.39 0.00 87 1013.9
20260505061956 51 15 7.0 11.3 0.00 0.39 0.00 87 1013.9
20260505060956 51 26 4.3 12.2 0.00 0.39 0.00 87 1013.7
20260505060456 51 28 7.8 12.2 0.00 0.39 0.00 87 1013.7
20260505055959 50 5 8.7 11.3 0.00 0.39 0.00 87 1013.7
20260505055456 50 5 7.8 13.9 0.00 0.39 0.00 88 1013.6
20260505054956 50 355 10.4 13.9 0.00 0.39 0.00 88 1013.6
20260505054456 50 11 6.1 11.3 0.00 0.39 0.00 88 1013.6
20260505053956 50 22 7.0 11.3 0.00 0.39 0.00 88 1013.6
20260505053456 50 360 7.0 10.4 0.00 0.39 0.00 88 1013.6
20260505052956 50 355 4.3 12.2 0.00 0.39 0.00 88 1013.8
20260505052456 50 9 6.1 12.2 0.00 0.39 0.00 88 1013.7
20260505051956 50 351 7.8 10.4 0.00 0.39 0.00 88 1013.6
20260505051456 51 348 3.5 8.7 0.00 0.39 0.00 87 1013.7
20260505050957 51 342 7.8 10.4 0.00 0.39 0.00 87 1013.7
20260505041455 51 337 7.0 7.0 0.00 0.41 0.00 87 1013.5
20260505040957 51 18 3.5 8.7 0.00 0.41 0.00 87 1013.6
20260505040456 51 360 2.6 8.7 0.00 0.41 0.00 88 1013.5
20260505035455 51 345 0.0 3.5 0.00 0.41 0.00 87 1013.6
20260505034956 51 342 0.9 4.3 0.00 0.41 0.00 88 1013.5
20260505034457 51 341 3.5 7.0 0.00 0.41 0.00 87 1013.5
20260505033456 51 342 0.9 3.5 0.00 0.41 0.00 87 1013.5
20260505032956 51 306 1.7 3.5 0.00 0.41 0.00 87 1013.6
20260505032456 51 298 2.6 3.5 0.00 0.41 0.00 87 1013.5
20260505031956 51 334 0.0 0.0 0.00 0.41 0.00 87 1013.5
20260505031457 51 172 0.0 0.0 0.00 0.41 0.00 87 1013.4
20260505030956 51 172 0.0 0.9 0.00 0.41 0.00 87 1013.4
20260505030456 51 153 0.0 2.6 0.00 0.41 0.00 87 1013.4
20260505025958 50 344 1.7 2.6 0.00 0.41 0.00 87 1013.5
20260505024456 50 344 2.6 4.3 0.00 0.41 0.00 86 1013.4
20260505023958 50 313 2.6 4.3 0.00 0.41 0.00 86 1013.4
20260505023456 50 344 1.7 3.5 0.00 0.41 0.00 86 1013.5
20260505022958 50 329 2.6 3.5 0.00 0.41 0.00 86 1013.4
20260505022458 50 346 2.6 3.5 0.00 0.41 0.00 86 1013.5
20260505021958 50 355 2.6 3.5 0.00 0.41 0.00 86 1013.5
20260505021457 50 360 2.6 3.5 0.00 0.41 0.00 86 1013.5
20260505020957 51 355 1.7 3.5 0.00 0.41 0.00 86 1013.3
20260505020457 50 336 3.5 3.5 0.00 0.41 0.00 86 1013.4
20260505015958 51 349 1.7 2.6 0.00 0.41 0.00 86 1013.4
20260505015456 51 326 0.0 2.6 0.00 0.41 0.00 86 1013.5
20260505014956 51 325 1.7 2.6 0.00 0.41 0.00 86 1013.5
20260505014458 51 336 0.9 3.5 0.00 0.41 0.00 86 1013.5
20260505013957 51 322 3.5 3.5 0.00 0.41 0.00 86 1013.6
20260505013457 51 322 0.9 3.5 0.00 0.41 0.00 86 1013.7
20260505012955 51 329 1.7 2.6 0.00 0.41 0.00 86 1013.7
20260505011456 51 288 1.7 3.5 0.00 0.41 0.00 86 1013.7